TimeEDT,TemperatureF,Dew PointF,Humidity,Sea Level PressureIn,VisibilityMPH,Wind Direction,Wind SpeedMPH,Gust SpeedMPH,PrecipitationIn,Events,Conditions,WindDirDegrees,DateUTC
12:54 AM,46.9,34.0,61,29.76,10.0,West,6.9,-,N/A,,Clear,280,2012-10-29 04:54:00
1:54 AM,46.0,34.0,63,29.75,10.0,West,6.9,-,N/A,,Clear,260,2012-10-29 05:54:00
2:54 AM,46.0,33.1,61,29.74,10.0,West,6.9,-,N/A,,Clear,280,2012-10-29 06:54:00
3:54 AM,46.0,33.1,61,29.73,10.0,West,6.9,-,N/A,,Clear,280,2012-10-29 07:54:00
4:54 AM,45.0,33.1,63,29.72,10.0,West,8.1,-,N/A,,Clear,270,2012-10-29 08:54:00
5:54 AM,45.0,33.1,63,29.73,10.0,WSW,5.8,-,N/A,,Clear,250,2012-10-29 09:54:00
6:54 AM,46.9,32.0,56,29.73,10.0,WNW,6.9,-,N/A,,Clear,290,2012-10-29 10:54:00
7:54 AM,48.9,30.9,50,29.73,10.0,NW,8.1,16.1,N/A,,Clear,320,2012-10-29 11:54:00
8:54 AM,48.9,33.1,54,29.74,10.0,WNW,8.1,-,N/A,,Clear,290,2012-10-29 12:54:00
9:54 AM,53.1,32.0,45,29.74,10.0,NW,16.1,20.7,N/A,,Clear,310,2012-10-29 13:54:00
10:54 AM,57.0,30.9,37,29.73,10.0,NNW,11.5,23.0,N/A,,Clear,340,2012-10-29 14:54:00
11:54 AM,57.9,30.0,35,29.73,10.0,NNW,18.4,24.2,N/A,,Clear,340,2012-10-29 15:54:00
12:54 PM,61.0,30.0,31,29.71,10.0,NNW,13.8,18.4,N/A,,Partly Cloudy,330,2012-10-29 16:54:00
2:54 PM,57.9,28.9,33,29.68,10.0,NW,19.6,39.1,N/A,,Clear,320,2012-10-29 18:54:00
3:54 PM,57.0,30.9,37,29.68,10.0,NW,17.3,28.8,N/A,,Clear,320,2012-10-29 19:54:00
4:54 PM,53.1,30.0,41,29.69,10.0,WNW,17.3,27.6,N/A,,Partly Cloudy,300,2012-10-29 20:54:00
5:54 PM,52.0,28.9,41,29.69,10.0,WNW,18.4,29.9,N/A,,Partly Cloudy,290,2012-10-29 21:54:00
6:54 PM,48.9,28.0,44,29.69,10.0,WNW,18.4,27.6,N/A,,Mostly Cloudy,300,2012-10-29 22:54:00
7:54 PM,48.9,28.9,46,29.68,10.0,WNW,10.4,25.3,N/A,,Clear,300,2012-10-29 23:54:00
8:54 PM,50.0,28.9,44,29.67,10.0,WNW,15.0,21.9,N/A,,Overcast,300,2012-10-30 00:54:00
9:54 PM,50.0,28.9,44,29.67,10.0,NW,12.7,26.5,N/A,,Overcast,310,2012-10-30 01:54:00
10:54 PM,48.9,27.0,43,29.66,10.0,WNW,16.1,24.2,N/A,,Partly Cloudy,300,2012-10-30 02:54:00
11:54 PM,48.0,26.1,42,29.65,10.0,NW,15.0,25.3,N/A,,Overcast,320,2012-10-30 03:54:00